EW8051 Weather Reports


time (UTC)temp
F
wind
direction
speed
knots
gust
knots
rain 1hr
in
rain 24hr
in
rain mn
in
humidity
%
barometer
mb
20260504022604 56 315 0.0 1.7 0.00 0.00 0.00 57 1011.9
20260504021600 56 315 0.0 1.7 0.00 0.00 0.00 58 1011.9
20260504020712 56 315 0.0 1.7 0.00 0.00 0.00 58 1011.9
20260504015540 56 0.0 0.0 0.00 0.00 0.00 56 1011.8
20260504014604 57 315 0.0 1.7 0.00 0.00 0.00 56 1011.8
20260504013648 56 315 0.0 1.7 0.00 0.00 0.00 57 1011.9
20260504012605 56 0.0 0.0 0.00 0.00 0.00 57 1011.9
20260504011540 56 0.0 0.0 0.00 0.00 0.00 58 1012.0
20260504010605 56 0.0 0.0 0.00 0.00 0.00 58 1012.0
20260504005543 56 0.0 0.0 0.00 0.00 0.00 56 1012.0
20260504004605 57 0.0 0.0 0.00 0.00 0.00 55 1012.1
20260504003632 57 0.0 0.0 0.00 0.00 0.00 54 1012.1
20260504002605 58 0.0 0.0 0.00 0.00 0.00 53 1012.2
20260504001542 58 315 0.9 1.7 0.00 0.00 0.00 53 1012.2
20260504000604 58 315 0.0 1.7 0.00 0.00 0.00 54 1012.1
20260503235654 58 0.0 0.0 0.00 0.00 0.00 53 1012.0
20260503234611 58 0.0 0.0 0.00 0.00 0.00 52 1011.9
20260503233541 59 315 0.0 1.7 0.00 0.00 0.00 51 1011.9
20260503232604 59 315 0.9 2.6 0.00 0.00 0.00 52 1011.9
20260503231541 59 0.0 0.0 0.00 0.00 0.00 51 1012.0
20260503230733 60 0.0 0.0 0.00 0.00 0.00 51 1012.0
20260503225602 60 0.0 0.0 0.00 0.00 0.00 51 1012.0
20260503224604 60 315 0.0 1.7 0.00 0.00 0.00 50 1012.1
20260503223629 60 0.0 1.7 0.00 0.00 0.00 50 1012.1
20260503222612 61 315 0.0 1.7 0.00 0.00 0.00 50 1012.1
20260503221605 61 315 1.7 4.3 0.00 0.00 0.00 49 1012.1
20260503220604 62 315 0.0 1.7 0.00 0.00 0.00 48 1012.2
20260503215540 62 315 0.0 3.5 0.00 0.00 0.00 48 1012.2
20260503214605 62 0.0 0.0 0.00 0.00 0.00 46 1012.2
20260503213541 63 315 0.9 3.5 0.00 0.00 0.00 45 1012.3
20260503212605 63 315 1.7 4.3 0.00 0.00 0.00 45 1012.3
20260503211541 64 315 1.7 2.6 0.00 0.00 0.00 41 1012.4
20260503210605 64 315 0.9 1.7 0.00 0.00 0.00 41 1012.4
20260503210035 64 315 1.7 5.2 0.00 0.00 0.00 41 1012.4
20260503205141 65 315 3.5 5.2 0.00 0.00 0.00 41 1012.4
20260503204029 65 315 2.6 4.3 0.00 0.00 0.00 41 1012.5
20260503203142 65 315 2.6 6.1 0.00 0.00 0.00 40 1012.5
20260503202030 65 315 2.6 5.2 0.00 0.00 0.00 40 1012.4
20260503201053 65 315 2.6 5.2 0.00 0.00 0.00 40 1012.5
20260503200029 65 315 6.1 9.6 0.00 0.00 0.00 40 1012.5
20260503195137 65 315 2.6 6.1 0.00 0.00 0.00 40 1012.5
20260503194114 66 315 0.0 2.6 0.00 0.00 0.00 40 1012.6
20260503193053 66 315 3.5 7.0 0.00 0.00 0.00 40 1012.6
20260503192030 66 315 0.9 3.5 0.00 0.00 0.00 40 1012.6
20260503191054 66 315 1.7 4.3 0.00 0.00 0.00 40 1012.6
20260503190341 66 315 1.7 3.5 0.00 0.00 0.00 40 1012.6
20260503185056 67 315 3.5 6.1 0.00 0.00 0.00 40 1012.6
20260503184036 67 315 2.6 4.3 0.00 0.00 0.00 40 1012.7
20260503183113 67 315 1.7 4.3 0.00 0.00 0.00 40 1012.6
20260503182050 67 315 1.7 3.5 0.00 0.00 0.00 40 1012.7
20260503181053 67 315 0.9 3.5 0.00 0.00 0.00 40 1012.6
20260503180035 67 315 0.9 2.6 0.00 0.00 0.00 40 1012.6
20260503175135 67 315 1.7 4.3 0.00 0.00 0.00 40 1012.6
20260503174109 68 315 0.0 1.7 0.00 0.00 0.00 39 1012.5
20260503173053 69 315 0.9 2.6 0.00 0.00 0.00 38 1012.4
20260503172139 69 315 0.9 2.6 0.00 0.00 0.00 37 1012.4
20260503171100 69 315 1.7 4.3 0.00 0.00 0.00 36 1012.2
20260503160119 75 315 3.5 6.1 0.00 0.00 0.00 28 1012.0
20260503131053 74 315 6.1 8.7 0.00 0.00 0.00 30 1013.0
20260503110639 69 0.0 0.0 0.00 0.00 0.00 40 1014.2
20260503081525 63 0.0 0.0 0.00 0.00 0.00 48 1015.5
20260503080549 63 0.0 0.0 0.00 0.00 0.00 49 1015.5
20260503072550 61 0.0 0.0 0.00 0.00 0.00 51 1015.6
20260503071702 60 0.0 0.0 0.00 0.00 0.00 51 1015.6
20260503070637 60 0.0 0.0 0.00 0.00 0.00 51 1015.6
20260503054549 56 0.0 0.0 0.00 0.00 0.00 54 1015.9
20260503053525 56 0.0 0.0 0.00 0.00 0.00 55 1015.9
20260503052609 56 0.0 0.0 0.00 0.00 0.00 55 1015.9
20260503051525 55 0.0 0.0 0.00 0.00 0.00 55 1016.0
20260503050549 55 0.0 0.0 0.00 0.00 0.00 55 1016.1
20260503045545 55 0.0 0.0 0.00 0.00 0.00 56 1016.2
20260503044612 55 0.0 0.0 0.00 0.00 0.00 57 1016.3
20260503043525 54 0.0 0.0 0.00 0.00 0.00 61 1016.3
20260503042550 54 0.0 0.0 0.00 0.00 0.00 61 1016.3
20260503041527 54 0.0 0.0 0.00 0.00 0.00 61 1016.3
20260503040550 53 0.0 0.0 0.00 0.00 0.00 62 1016.4
20260503035525 53 0.0 0.0 0.00 0.00 0.00 62 1016.5
20260503034549 52 0.0 0.0 0.00 0.00 0.00 63 1016.6
20260503033529 52 0.0 0.0 0.00 0.00 0.00 63 1016.5
20260503032550 52 0.0 0.0 0.00 0.00 0.00 63 1016.4
20260503031530 52 0.0 0.0 0.00 0.00 0.00 63 1016.5
20260503030556 52 0.0 0.0 0.00 0.00 0.00 63 1016.5
20260503025546 52 0.0 0.0 0.00 0.00 0.00 63 1016.5
20260503024556 52 0.0 0.0 0.00 0.00 0.00 63 1016.5
20260503023545 52 0.0 0.0 0.00 0.00 0.00 63 1016.5